Petit Paris, Belgium

1:41 PM CET on January 19, 2018 (GMT +0100)
Petit Paris

Weather History for 06447 - February, 2014

Change the Weather History Date:

Tuesday, February 4, 2014

  Actual Average Record
Temperature  
Mean Temperature 44 °F -  
Max Temperature 48 °F 44 °F - ()
Min Temperature 39 °F 33 °F - ()
Degree Days  
Heating Degree Days 22    
Moisture  
Dew Point 35 °F    
Average Humidity 64    
Maximum Humidity 74    
Minimum Humidity 53    
Precipitation  
Precipitation 0.00 in 0.07 in - ()
Sea Level Pressure  
Sea Level Pressure 29.69 in    
Wind  
Wind Speed 12 mph ()    
Max Wind Speed 16 mph    
Max Gust Speed -    
T = Trace of Precipitation, MM = Missing Value Source: Averaged Metar Reports

Daily Weather History Graph

Daily Weather History Graph

Search for Another Location

Airport or City:

Trip Planner

Search our weather history database for the weather conditions in past years. The results will help you decide how hot, cold, wet, or windy it might be!

Date:

Astronomy

Feb. 04, 2014 Rise Set
Actual Time 8:14 AM CET 5:39 PM CET
Civil Twilight 7:39 AM CET 6:14 PM CET
Nautical Twilight 6:59 AM CET 6:53 PM CET
Astronomical Twilight 6:21 AM CET 7:32 PM CET
Moon 10:04 AM CET (2/4) 11:59 PM CET (2/4)
Length of Visible Light 10h 35m
Length of Day
9h 25m
Waxing Crescent, 26% of the Moon is Illuminated
Feb 4
Waxing Crescent
Feb 6
First Quarter
Feb 15
Full
Feb 22
Last Quarter
Mar 1
New

Hourly Weather History & Observations

Time (CET) Temp. Dew Point Humidity Pressure Visibility Wind Dir Wind Speed Gust Speed Precip Events Conditions
12:00 AM 39 °F 34 °F 74% 29.64 in - SSE 11.2 mph - -  
1:00 AM 39 °F 34 °F 74% 29.64 in - SSE 13.4 mph - -  
2:00 AM 39 °F 33 °F 73% 29.64 in - South 13.4 mph - -  
3:00 AM 39 °F 33 °F 70% 29.63 in - South 15.7 mph - -  
4:00 AM 39 °F 33 °F 73% 29.64 in - South 13.4 mph - -  
5:00 AM 41 °F 35 °F 70% 29.64 in - South 13.4 mph - -  
6:00 AM 42 °F 35 °F 70% 29.64 in - South 13.4 mph - -  
7:00 AM 43 °F 36 °F 68% 29.67 in - SSW 15.7 mph - -  
8:00 AM 43 °F 36 °F 69% 29.69 in - SSW 15.7 mph - -  
9:00 AM 43 °F 36 °F 69% 29.73 in - SSW 15.7 mph - -  
10:00 AM 44 °F 36 °F 66% 29.75 in - SSW 11.2 mph - -  
11:00 AM 45 °F 36 °F 61% 29.76 in - SSW 13.4 mph - -  
12:00 PM 47 °F 36 °F 56% 29.78 in - SSW 15.7 mph - -  
1:00 PM 48 °F 36 °F 53% 29.76 in - South 13.4 mph - -  
2:00 PM 48 °F 37 °F 54% 29.76 in - South 15.7 mph - -  
3:00 PM 46 °F 35 °F 56% 29.75 in - South 15.7 mph - -  
4:00 PM 46 °F 36 °F 58% 29.73 in - South 13.4 mph - -  
5:00 PM 46 °F 34 °F 53% 29.72 in - South 13.4 mph - -  
6:00 PM 46 °F 34 °F 53% 29.70 in - South 15.7 mph - -  
7:00 PM 44 °F 34 °F 57% 29.69 in - South 13.4 mph - -  
8:00 PM 44 °F 36 °F 63% 29.66 in - SSE 13.4 mph - -  
9:00 PM 42 °F 34 °F 65% 29.64 in - SSE 11.2 mph - -  
10:00 PM 42 °F 34 °F 65% 29.61 in - SSE 13.4 mph - -  
11:00 PM 42 °F 34 °F 66% 29.58 in - SSE 15.7 mph - -